This is the latest recevied weather packets stored in our database for station/object N5DGC. If no packets are shown the sender has not sent any weather packets the latest 10 day(s).
| Time | Temp. | Humidity | Pressure | Rain* | Wind** | Luminosity | Snow |
|---|---|---|---|---|---|---|---|
| 1788136089 | 90° F | 23% | 928.6 mmHg | 0 in | - | 30 W/m² | - |
| 1788135788 | 90° F | 23% | 928.5 mmHg | 0 in | - | 30 W/m² | - |
| 1788135484 | 90° F | 23% | 928.6 mmHg | 0 in | - | 33 W/m² | - |
| 1788135179 | 91° F | 23% | 928.5 mmHg | 0 in | - | 36 W/m² | - |
| 1788134877 | 91° F | 22% | 928.4 mmHg | 0 in | - | 47 W/m² | - |
| 1788134576 | 93° F | 22% | 928.5 mmHg | 0 in | - | 70 W/m² | - |
| 1788134275 | 93° F | 21% | 928.5 mmHg | 0 in | - | 98 W/m² | - |
| 1788133970 | 95° F | 20% | 928.4 mmHg | 0 in | - | 116 W/m² | - |
| 1788133665 | 95° F | 20% | 928.5 mmHg | 0 in | - | 271 W/m² | - |
| 1788133361 | 95° F | 20% | 928.4 mmHg | 0 in | - | 182 W/m² | - |
| 1788133056 | 96° F | 20% | 928.4 mmHg | 0 in | - | 176 W/m² | - |
| 1788132752 | 96° F | 21% | 928.6 mmHg | 0 in | - | 344 W/m² | - |
| 1788132447 | 96° F | 20% | 928.7 mmHg | 0 in | - | 214 W/m² | - |
| 1788132143 | 95° F | 20% | 928.4 mmHg | 0 in | - | 426 W/m² | - |
| 1788131839 | 94° F | 21% | 928.6 mmHg | 0 in | - | 376 W/m² | - |
| 1788131538 | 94° F | 21% | 928.5 mmHg | 0 in | - | 374 W/m² | - |
| 1788131234 | 94° F | 21% | 928.4 mmHg | 0 in | - | 486 W/m² | - |
| 1788130929 | 93° F | 21% | 928.2 mmHg | 0 in | - | 310 W/m² | - |
| 1788130623 | 93° F | 21% | 928.2 mmHg | 0 in | - | 311 W/m² | - |
| 1788130324 | 94° F | 20% | 928.2 mmHg | 0 in | - | 150 W/m² | - |
| 1788130022 | 96° F | 20% | 928.3 mmHg | 0 in | - | 578 W/m² | - |
| 1788129719 | 96° F | 20% | 928.3 mmHg | 0 in | - | 542 W/m² | - |
| 1788129415 | 95° F | 21% | 928.5 mmHg | 0 in | - | 673 W/m² | - |
| 1788129116 | 95° F | 21% | 928.6 mmHg | 0 in | - | 279 W/m² | - |
| 1788128810 | 95° F | 21% | 928.6 mmHg | 0 in | - | 605 W/m² | - |
* Rain latest hour (hover to see other rain measurements)
** Current wind speed in m/s (hover to see current wind gust speed)